Погода в Вардё

Норвегия     70°22′27″N   31°06′02″E
темп.,
°C
ветер,
м/с
пор.,
м/с
влажн.,
%
обл.,
%
осадки,
мм/ч
давл.,
гПа
погр.,
м
26 июля, пн
пн2623:00+8ссз81181100 0.1 1014871
02:00+7ссз7108212 0.1 1016826
05:00+8ссз10127676 0.0 10171015
08:00+8ссз10117657 0.1 1018865
11:00+9ссз898045 0.0 1020691
14:00+10ссз577683 0.0 1021348
17:00+10с567894 0.0 1021252
20:00+9с45836 0.0 1021206
27 июля, вт
вт2723:00+8ссз33876 0.0 1022129
02:00+8сз22866 0.0 1022129
05:00+9юз128656 0.0 1022206
08:00+9ю338524 0.0 1021225
11:00+10ю33825 0.0 1020175
14:00+10юв44820 0.0 1019144
17:00+10вюв448551 0.0 1017138
20:00+10всв448882 0.0 1015119
28 июля, ср
ср2823:00+9ссв799040 0.0 1015323
02:00+8с898682 0.0 1015489
05:00+8с788580 0.0 1014558
08:00+10с667885 0.0 1014669
11:00+10ссв5677100 0.1 1013473
14:00+10ссв5679100 0.1 1012458
17:00+9с5681100 0.1 1011575
20:00+8с5684100 0.3 1010548
29 июля, чт
чт2923:00+8с578494 0.1 1009494
02:00+8ссз4683100 0.1 1008514
05:00+8ссз5682100 0.1 1007585
08:00+8с5581100 0.3 1006774
11:00+7с5579100 0.3 1005799
14:00+8ссз5671100 0.3 1005951
17:00+8ссз5675100 0.1 1004791
20:00+7ссз3478100 0.1 1003577
30 июля, пт
пт3023:00+7сз2278100 0.1 1002421
02:00+7зсз1274100 0.1 1001498
05:00+7в1182100 0.3 1000271
08:00+8ююв4582100 1.2 999821
11:00+9ююв557596 0.1 999689
14:00+9юв5573100 0.2 998608
17:00+9вюв8782100 0.0 998377
20:00+9в6886100 0.1 997382